Regional Weather Roundup
Issued by NWS Kansas City/Pleasant Hill, MO

Home | Current Version | Previous Version | Text Only | Print | Product List | Glossary On
Versions: 1 2 3 4 5 6 7 8 9 10 11 12 13 14 15 16 17 18 19 20 21 22 23 24 25 26 27 28 29 30 31 32 33 34 35 36 37 38 39 40 41 42 43 44 45 46 47 48 49 50
000
ASUS43 KEAX 280111
RWREAX

WEATHER ROUNDUP FOR EASTERN KANSAS AND NORTHWEST MISSOURI
NATIONAL WEATHER SERVICE KANSAS CITY/PLEASANT HILL MO
800 PM CDT FRI MAR 27 2015

KSZ040-057-103>105-MOZ028-029-037-043-280200-
...KANSAS CITY METROPOLITAN AREA...

CITY           SKY/WX    TMP DP  RH WIND       PRES   REMARKS
K.C. INTL      CLOUDY    40  22  48 W5        30.16R
K.C. DOWNTOWN  CLOUDY    43  17  35 NW6       30.16S
LEES SUMMIT    CLOUDY    41  18  39 NE5       30.16S
OLATHE - IXD   CLOUDY    40  20  44 N5        30.17S
OLATHE - OJC   CLOUDY    41  19  41 NW7       30.15S
LAWRENCE       CLOUDY    40  22  48 NE5       30.17S

$$

MOZ001>008-011>017-020>025-030>033-038>040-044>046-053-054-280200-
...NORTHERN AND CENTRAL MISSOURI...

CITY           SKY/WX    TMP DP  RH WIND       PRES   REMARKS
ST. JOSEPH     CLOUDY    39  22  50 NW6       30.17R WCI  35
MOSBY          CLOUDY    41  19  42 CALM      30.17S
WARRENSBURG    CLOUDY    39  23  52 CALM      30.17S
WHITEMAN AFB   MOCLDY    39  24  54 NE3       30.15S
CLINTON        CLOUDY    43  27  52 CALM      30.17F
SEDALIA        CLOUDY    41  24  51 CALM      30.17R
WARSAW         NOT AVBL
MARSHALL       CLOUDY    43  21  42 CALM      30.18R
CHILLICOTHE      N/A     41  22  46 CALM      30.17S
MOBERLY        CLOUDY    39  23  52 CALM      30.16R
KIRKSVILLE     CLOUDY    36  20  52 NE5       30.15R WCI  32

$$

MOZ041-047>049-056>058-063>065-088>090-097-280200-
...EASTERN AND SOUTHERN MISSOURI...

CITY           SKY/WX    TMP DP  RH WIND       PRES   REMARKS
ST. LOUIS INTL PTCLDY    37  18  46 N6        30.16S WCI  32
SPIRIT OF STL  CLEAR     36  19  50 CALM      30.16S
COLUMBIA       CLOUDY    40  20  44 CALM      30.15R
JEFFERSON CITY CLOUDY    41  18  39 NE3       30.16R
MEXICO         CLOUDY    39  28  65 N3        30.14S
HANNIBAL       PTCLDY    36  10  35 CALM      30.16R
ROLLA          MOCLDY    37  21  52 CALM      30.12S
LEBANON        MOCLDY    39  21  48 N5        30.15R
OSAGE BEACH    CLOUDY    39  19  45 N3        30.16R
SPRINGFIELD    CLOUDY    42  22  44 NW8       30.15R
BRANSON        CLOUDY    41  23  48 NW9       30.14R
JOPLIN         CLOUDY    45  23  42 NW5       30.16R
WEST PLAINS    MOCLDY    41  17  38 CALM      30.12S

$$

IAZ060-094-KSZ022-034>040-054-083-096-NEZ052-066-093-280200-
...KANSAS...SOUTHEAST NEBRASKA AND IOWA...

CITY           SKY/WX    TMP DP  RH WIND       PRES   REMARKS
TOPEKA         CLOUDY    42  21  43 NE8       30.16S
MANHATTAN      CLOUDY    44  21  40 SE6       30.11F
EMPORIA        CLOUDY    44  20  38 E5        30.12F
CHANUTE        CLOUDY    46  19  34 NE7       30.15F
WICHITA        CLOUDY    49  28  44 S5        30.11F
OMAHA          CLOUDY    38  15  39 CALM      30.13F
LINCOLN        CLOUDY    38  23  55 SE9       30.12S WCI  31
FALLS CITY     CLOUDY    38  20  48 CALM      30.14F
LAMONI         CLOUDY    37  20  50 W3        30.14S
DES MOINES     CLOUDY    38   8  29 CALM      30.16R

$$




USA.gov is the U.S. government's official web portal to all federal, state and local government web resources and services.